Location: Bakhuizen
(52.8696°N, 5.4575°E)
Time: 18:12:20
(UTC+00:00)

Cosmos 1821 Rocket - Pass Details

Date: 11 May 2021
Orbit: 945 x 1004 km, 82.9° (Epoch: 21 June)

Event Time Altitude Azimuth Distance (km) Brightness Sun altitude
Rises 23:29:16 0° 348° (NNW) 3,745 8.6 -19.0°
Reaches altitude 10° 23:31:49 10° 347° (NNW) 2,792 7.6 -19.0°
Maximum altitude 23:38:13 73° 264° (W) 1,052 4.1 -19.0°
Enters shadow 23:41:24 32° 187° (S) 1,662 4.6 -19.0°
